Waarnemingen

Advertentie
Mijn weer
A12-CPP, Nederland (6205): temperatuur & dauwpunt: 15.01.2017 11:00:00 - 21.01.2017 11:00:00 (CET)A12-CPP, Nederland (6205): windsnelheid & windstoten: 15.01.2017 11:00:00 - 21.01.2017 11:00:00 (CET)A12-CPP, Nederland (6205): windrichting: 15.01.2017 11:00:00 - 21.01.2017 11:00:00 (CET)A12-CPP, Nederland (6205): luchtdruk: 15.01.2017 11:00:00 - 21.01.2017 11:00:00 (CET)A12-CPP, Nederland (6205): zicht: 15.01.2017 11:00:00 - 21.01.2017 11:00:00 (CET)
Datum & Tijd tt [°C] td [°C] ff [km/u] ff [kn] fx [km/u] fx [kn] dd ppp [hPa] vv [km]
21.01.2017 11:00:00 5,8 2,3 8 4 14 8 - 1033,0 10
21.01.2017 10:00:00 5,9 2,5 9 5 14 8 O 1033,3 10
21.01.2017 09:00:00 5,9 2,4 11 6 14 8 ZZO 1033,2 48
21.01.2017 08:00:00 5,9 2,2 8 4 14 8 - 1033,0 10
21.01.2017 07:00:00 6,0 2,4 7 4 14 8 O 1033,1 50
21.01.2017 06:00:00 6,1 2,4 5 3 11 6 - 1033,3 10
21.01.2017 05:00:00 6,0 2,4 5 3 14 8 - 1033,5 10
21.01.2017 04:00:00 6,2 2,3 4 2 11 6 - 1034,0 10
21.01.2017 03:00:00 6,2 2,6 8 4 11 6 - 1034,2 10
21.01.2017 02:00:00 6,2 2,2 5 3 11 6 - 1034,3 10
21.01.2017 01:00:00 6,2 2,4 4 2 11 6 - 1034,6 10
21.01.2017 00:00:00 6,2 2,3 5 3 11 6 NNW 1035,0 10
20.01.2017 23:00:00 6,3 2,6 5 3 11 6 - 1035,2 10
20.01.2017 22:00:00 6,3 2,5 2 1 11 6 - 1035,2 10
20.01.2017 21:00:00 6,3 2,5 5 3 7 4 - 1035,2 10
20.01.2017 20:00:00 6,3 2,5 9 5 14 8 N 1035,1 10
20.01.2017 19:00:00 6,4 3,0 5 3 14 8 N 1035,0 10
20.01.2017 18:00:00 6,3 3,0 13 7 18 10 NNW 1035,2 10
20.01.2017 17:00:00 6,4 3,2 11 6 18 10 W 1035,4 10
20.01.2017 16:00:00 6,5 3,2 9 5 18 10 NW 1035,2 10
20.01.2017 15:00:00 6,5 3,2 11 6 18 10 WNW 1035,3 10
20.01.2017 14:00:00 6,6 3,3 13 7 18 10 WNW 1035,4 10
20.01.2017 13:00:00 6,7 3,3 11 6 14 8 NW 1035,7 10
20.01.2017 12:00:00 6,8 3,2 13 7 14 8 WNW 1036,0 10
20.01.2017 11:00:00 6,8 3,1 13 7 14 8 W 1036,0 10
20.01.2017 10:00:00 6,6 3,1 9 5 11 6 W 1036,0 10
20.01.2017 09:00:00 6,3 2,8 9 5 18 10 WZW 1035,6 10
20.01.2017 08:00:00 6,3 2,8 9 5 18 10 WNW 1035,5 10
20.01.2017 07:00:00 6,3 2,7 11 6 18 10 W 1035,4 10
20.01.2017 06:00:00 6,3 2,9 15 8 18 10 WNW 1035,6 10
20.01.2017 05:00:00 6,3 2,7 13 7 18 10 W 1035,9 10
20.01.2017 04:00:00 6,5 2,8 11 6 18 10 W 1035,9 10
20.01.2017 03:00:00 6,5 2,5 13 7 14 8 W 1035,9 10
20.01.2017 02:00:00 6,6 3,1 11 6 18 10 W 1036,1 10
20.01.2017 01:00:00 6,6 2,6 11 6 18 10 WZW 1036,4 10
20.01.2017 00:00:00 6,7 2,6 15 8 18 10 ZW 1036,5 10
19.01.2017 23:00:00 6,8 2,5 13 7 18 10 WZW 1036,6 10
19.01.2017 22:00:00 6,9 2,6 13 7 14 8 WZW 1036,6 10
19.01.2017 21:00:00 7,0 2,8 11 6 14 8 ZW 1036,6 10
19.01.2017 20:00:00 7,0 3,0 13 7 14 8 W 1036,4 10
19.01.2017 19:00:00 7,1 2,8 11 6 14 8 W 1036,2 10
19.01.2017 18:00:00 7,3 2,9 9 5 14 8 W 1036,2 10
19.01.2017 17:00:00 7,1 4,1 13 7 18 10 W 1036,0 10
19.01.2017 16:00:00 7,3 3,0 14 8 25 14 WNW 1036,0 49
19.01.2017 15:00:00 7,0 4,6 18 10 18 10 W 1036,0 10
19.01.2017 14:00:00 7,0 4,4 18 10 22 12 WZW 1036,1 10
19.01.2017 13:00:00 7,0 4,1 21 11 18 10 WZW 1036,4 10
19.01.2017 12:00:00 7,3 3,9 16 9 22 12 WZW 1036,9 10
19.01.2017 11:00:00 7,2 4,1 16 9 18 10 WZW 1037,0 10
19.01.2017 10:00:00 7,2 4,1 16 9 22 12 W 1036,7 10
19.01.2017 09:00:00 7,2 4,4 18 10 22 12 WNW 1036,4 35
19.01.2017 08:00:00 6,7 6,2 14 8 18 10 W 1036,0 4,8
19.01.2017 07:00:00 6,7 6,2 14 8 22 12 WZW 1035,8 4,4
19.01.2017 06:00:00 6,7 6,2 18 10 25 14 WZW 1035,9 2,0
19.01.2017 05:00:00 6,8 6,0 22 12 22 12 ZW 1035,9 5
19.01.2017 04:00:00 7,0 6,0 18 10 25 14 WZW 1035,8 15
19.01.2017 03:00:00 6,9 6,2 22 12 25 14 ZW 1035,7 8
19.01.2017 02:00:00 7,0 6,3 18 10 22 12 WZW 1036,1 11
19.01.2017 01:00:00 6,8 6,4 22 12 22 12 WZW 1036,2 2,6
19.01.2017 00:00:00 6,9 6,4 22 12 22 12 WZW 1036,3 1,3
18.01.2017 23:00:00 6,8 6,4 22 12 25 14 W 1036,3 2,0
18.01.2017 22:00:00 6,8 6,2 21 11 25 14 WZW 1036,4 3,9
18.01.2017 21:00:00 7,0 5,9 24 13 25 14 WZW 1036,5 10
18.01.2017 20:00:00 7,3 6,1 24 13 25 14 W 1036,5 10
18.01.2017 19:00:00 7,0 6,8 22 12 22 12 WZW 1036,3 1,6
18.01.2017 18:00:00 6,7 6,4 28 15 29 16 WZW 1036,1 0,4
18.01.2017 17:00:00 6,6 6,2 29 16 29 16 ZW 1035,9 0,3
18.01.2017 16:00:00 6,5 6,1 29 16 29 16 ZW 1035,9 0,2
18.01.2017 15:00:00 6,4 6,1 28 15 29 16 ZW 1035,8 0,2
18.01.2017 14:00:00 6,3 5,8 29 16 32 18 WZW 1035,8 2,6
18.01.2017 13:00:00 6,2 5,7 34 18 36 19 ZW 1036,1 0,6
18.01.2017 12:00:00 6,0 5,4 39 21 36 19 ZW 1036,3 0,9
18.01.2017 11:00:00 5,9 5,3 39 21 36 19 ZW 1036,3 0,8
18.01.2017 10:00:00 5,7 4,9 41 22 40 21 ZW 1036,0 2,0
18.01.2017 09:00:00 5,8 4,5 41 22 40 21 ZW 1035,5 4,7
18.01.2017 08:00:00 5,9 3,9 44 24 43 23 ZW 1035,1 7
18.01.2017 07:00:00 5,7 3,4 44 24 47 25 ZW 1034,8 9
18.01.2017 06:00:00 5,9 2,7 44 24 47 25 ZW 1034,9 10
18.01.2017 05:00:00 6,1 2,3 41 22 43 23 ZZW 1035,3 10
18.01.2017 04:00:00 6,1 2,5 41 22 43 23 ZZW 1035,3 10
18.01.2017 03:00:00 6,0 2,4 42 23 43 23 ZW 1035,5 10
18.01.2017 02:00:00 6,0 2,3 42 23 43 23 ZZW 1035,3 10
18.01.2017 01:00:00 6,0 2,1 44 24 47 25 ZW 1035,7 10
18.01.2017 00:00:00 5,9 1,5 44 24 43 23 ZZW 1035,8 10
17.01.2017 23:00:00 5,8 1,5 44 24 43 23 ZZW 1035,9 10
17.01.2017 22:00:00 5,9 1,5 46 25 43 23 ZZW 1035,7 10
17.01.2017 21:00:00 5,8 1,7 44 24 43 23 ZZW 1035,7 10
17.01.2017 20:00:00 5,8 1,8 46 25 43 23 ZZW 1035,3 10
17.01.2017 19:00:00 5,8 1,8 42 23 43 23 ZZW 1035,2 10
17.01.2017 18:00:00 6,0 2,4 42 23 43 23 ZZW 1035,2 10
17.01.2017 17:00:00 5,7 1,7 41 22 43 23 ZZW 1035,2 10
17.01.2017 16:00:00 5,7 1,1 41 22 40 21 ZZW 1035,2 10
17.01.2017 15:00:00 5,6 0,0 41 22 43 23 ZZW 1035,0 10
17.01.2017 14:00:00 5,6 0,0 41 22 40 21 ZZW 1035,1 10
17.01.2017 13:00:00 5,8 -0,1 39 21 40 21 ZZW 1035,6 10
17.01.2017 12:00:00 5,8 -0,6 39 21 40 21 ZZW 1035,4 10
17.01.2017 11:00:00 5,8 0,1 39 21 40 21 ZZW 1035,1 10
17.01.2017 10:00:00 5,7 -0,4 39 21 40 21 ZZW 1035,0 10
17.01.2017 09:00:00 5,5 -0,7 39 21 36 19 ZZW 1034,6 10
17.01.2017 08:00:00 5,7 -0,8 37 20 40 21 ZZW 1034,2 10
17.01.2017 07:00:00 5,6 -0,5 35 19 - - ZZW 1033,9 10
17.01.2017 06:00:00 5,5 -0,6 31 17 36 19 ZZW 1033,6 10
17.01.2017 05:00:00 5,4 -1,4 34 18 36 19 ZZW 1033,7 10
17.01.2017 04:00:00 5,4 -1,5 29 16 - - ZZW 1033,8 10
17.01.2017 03:00:00 5,2 -1,2 28 15 32 18 Z 1033,5 10
17.01.2017 02:00:00 5,0 -0,8 31 17 32 18 Z 1033,2 10
17.01.2017 01:00:00 5,2 -1,7 31 17 32 18 Z 1033,0 10
17.01.2017 00:00:00 5,1 -1,7 28 15 29 16 Z 1032,8 10
16.01.2017 23:00:00 5,1 -3,0 28 15 29 16 Z 1032,6 10
16.01.2017 22:00:00 5,1 -2,6 22 12 22 12 Z 1032,4 10
16.01.2017 21:00:00 5,1 -2,2 15 8 18 10 Z 1032,2 10
16.01.2017 20:00:00 5,0 -3,7 16 9 22 12 ZZO 1031,6 10
16.01.2017 19:00:00 4,9 -2,8 21 11 22 12 ZZO 1031,0 10
16.01.2017 18:00:00 4,8 -3,2 16 9 18 10 ZZO 1030,4 10
16.01.2017 17:00:00 4,9 -4,9 5 3 11 6 OZO 1030,0 10
16.01.2017 16:00:00 5,0 -5,2 8 4 14 8 - 1029,9 10
16.01.2017 15:00:00 5,2 -5,2 8 4 14 8 - 1029,5 10
16.01.2017 14:00:00 4,9 -5,3 9 5 14 8 - 1029,1 10
16.01.2017 13:00:00 5,1 -4,8 8 4 14 8 Z 1029,2 10
16.01.2017 12:00:00 5,0 -5,0 9 5 14 8 - 1029,1 10
16.01.2017 11:00:00 4,8 -4,7 11 6 18 10 ONO 1028,8 10
16.01.2017 10:00:00 4,8 -4,5 11 6 18 10 ONO 1028,4 10
16.01.2017 09:00:00 4,9 -4,4 13 7 18 10 ONO 1027,6 10
16.01.2017 08:00:00 5,0 -3,9 18 10 22 12 ONO 1027,1 10
16.01.2017 07:00:00 5,0 -2,7 21 11 22 12 ONO 1026,6 10
16.01.2017 06:00:00 5,1 -2,3 9 5 18 10 - 1026,2 10
16.01.2017 05:00:00 4,8 -2,0 9 5 11 6 ONO 1026,0 10
16.01.2017 04:00:00 4,6 -1,5 9 5 11 6 NO 1026,0 10
16.01.2017 03:00:00 4,2 -0,5 9 5 29 16 ONO 1025,8 10
16.01.2017 02:00:00 4,2 0,1 24 13 29 16 ONO 1025,3 10
16.01.2017 01:00:00 4,9 -0,6 13 7 14 8 NNO 1025,2 10
16.01.2017 00:00:00 4,3 -0,7 21 11 29 16 NNO 1025,2 10
15.01.2017 23:00:00 4,8 0,3 15 8 22 12 N 1024,8 10
15.01.2017 22:00:00 5,1 -2,0 11 6 18 10 N 1024,2 10
15.01.2017 21:00:00 5,1 -1,8 11 6 22 12 NO 1024,0 10
15.01.2017 20:00:00 5,3 -1,4 21 11 22 12 NO 1023,4 10
15.01.2017 19:00:00 5,3 -0,6 16 9 22 12 N 1022,6 10
15.01.2017 18:00:00 5,3 -2,0 16 9 22 12 N 1022,2 10
15.01.2017 17:00:00 5,4 -2,3 15 8 18 10 N 1021,6 10
15.01.2017 16:00:00 5,2 -2,4 16 9 18 10 N 1020,8 10
15.01.2017 15:00:00 5,2 -1,8 16 9 18 10 N 1020,5 10
15.01.2017 14:00:00 5,1 -2,4 15 8 18 10 N 1019,8 10
15.01.2017 13:00:00 5,1 -3,0 13 7 18 10 N 1019,5 10
15.01.2017 12:00:00 5,1 -2,8 15 8 18 10 N 1019,5 10
15.01.2017 11:00:00 5,0 -4,0 21 11 22 12 N 1019,1 10

tt = temperatuur
td = dauwpunt
ff = windsnelheid
fx = windstoten
dd = windrichting
ppp = luchtdruk
vv = zicht

Weerstations in de omgeving